Weather History for KSPG - August, 2013

Change the Weather History Date:

Saturday, August 31, 2013

  Actual Average Record
Temperature  
Mean Temperature 83 °F -  
Max Temperature 88 °F 90 °F 94 °F (1980)
Min Temperature 78 °F 75 °F 70 °F (1979)
Cooling Degree Days 18    
Growing Degree Days 33 (Base 50)    
Moisture  
Dew Point 74 °F    
Average Humidity 75    
Maximum Humidity 91    
Minimum Humidity 57    
Precipitation  
Precipitation 0.05 in - - ()
Sea Level Pressure  
Sea Level Pressure 29.93 in    
Wind  
Wind Speed 5 mph (SW)    
Max Wind Speed 18 mph    
Max Gust Speed 24 mph    
Visibility 10 miles    
Events Rain , Thunderstorm    
Averages and records for this station are not official NWS values.
T = Trace of Precipitation, MM = Missing Value Source: NWS Daily Summary

Daily Weather History Graph

Daily Weather History Graph

Search for Another Location

Airport or City:

Trip Planner

Search our weather history database for the weather conditions in past years. The results will help you decide how hot, cold, wet, or windy it might be!

Date:

Astronomy

Aug. 31, 2013 Rise Set
Actual Time 7:08 AM EDT 7:52 PM EDT
Civil Twilight 6:45 AM EDT 8:15 PM EDT
Nautical Twilight 6:17 AM EDT 8:43 PM EDT
Astronomical Twilight 5:48 AM EDT 9:12 PM EDT
Moon 2:51 AM EDT (8/31) 4:36 PM EDT (8/31)
Length of Visible Light 13h 30m
Length of Day
12h 43m
Waning Crescent, 21% of the Moon is Illuminated
Aug 31
Waning Crescent
Sep 5
New
Sep 12
First Quarter
Sep 19
Full
Sep 26
Last Quarter

Hourly Weather History & Observations

Time (EDT) Temp. Heat Index Dew Point Humidity Pressure Visibility Wind Dir Wind Speed Gust Speed Precip Events Conditions
12:53 AM 82.0 °F 87.4 °F 73.0 °F 74% 29.94 in 10.0 mi Calm Calm - N/A   Mostly Cloudy
1:53 AM 81.0 °F 86.7 °F 75.0 °F 82% 29.91 in 10.0 mi South 3.5 mph - N/A   Clear
2:53 AM 81.0 °F 87.3 °F 75.9 °F 85% 29.89 in 10.0 mi SSW 5.8 mph - N/A   Clear
3:53 AM 82.0 °F 90.2 °F 77.0 °F 85% 29.89 in 10.0 mi SW 5.8 mph - N/A   Clear
4:53 AM 81.0 °F 87.3 °F 75.9 °F 85% 29.89 in 10.0 mi SSW 4.6 mph - N/A   Clear
5:53 AM 81.0 °F 87.9 °F 77.0 °F 88% 29.90 in 10.0 mi SW 3.5 mph - N/A   Clear
6:53 AM 81.0 °F 87.9 °F 77.0 °F 88% 29.92 in 10.0 mi SW 3.5 mph - N/A   Partly Cloudy
7:53 AM 81.0 °F 87.9 °F 77.0 °F 88% 29.93 in 10.0 mi South 6.9 mph - N/A   Partly Cloudy
8:14 AM 81.0 °F 88.6 °F 78.1 °F 91% 29.94 in 10.0 mi South 10.4 mph - N/A Thunderstorm Scattered Clouds
8:33 AM 81.0 °F 87.3 °F 75.9 °F 85% 29.94 in 10.0 mi SSW 18.4 mph 24.2 mph N/A   Mostly Cloudy
8:53 AM 79.0 °F - 73.9 °F 84% 29.96 in 4.0 mi West 12.7 mph - 0.02 in Rain , Thunderstorm Light Thunderstorms and Rain
9:10 AM 78.1 °F - 73.0 °F 84% 29.96 in 7.0 mi West 10.4 mph - 0.02 in Rain , Thunderstorm Light Rain
9:49 AM 78.8 °F - 71.6 °F 78% 29.97 in 10.0 mi Variable 4.6 mph - 0.03 in   Mostly Cloudy
9:53 AM 80.1 °F 84.2 °F 73.0 °F 79% 29.98 in 10.0 mi North 6.9 mph - 0.03 in   Mostly Cloudy
10:53 AM 82.9 °F 88.8 °F 73.0 °F 72% 29.98 in 10.0 mi Variable 4.6 mph - N/A   Clear
11:53 AM 84.0 °F 90.2 °F 73.0 °F 69% 29.99 in 10.0 mi SE 4.6 mph - N/A   Clear
12:53 PM 86.0 °F 92.2 °F 72.0 °F 63% 29.97 in 10.0 mi SE 6.9 mph - N/A   Clear
1:53 PM 88.0 °F 93.8 °F 71.1 °F 57% 29.96 in 10.0 mi West 3.5 mph - N/A   Mostly Cloudy
2:53 PM 88.0 °F 95.6 °F 73.0 °F 61% 29.94 in 10.0 mi Variable 5.8 mph - N/A   Scattered Clouds
3:53 PM 88.0 °F 96.5 °F 73.9 °F 63% 29.92 in 10.0 mi West 10.4 mph - N/A   Partly Cloudy
4:53 PM 87.1 °F 94.5 °F 73.0 °F 63% 29.89 in 10.0 mi West 9.2 mph - N/A   Clear
5:53 PM 87.1 °F 94.5 °F 73.0 °F 63% 29.90 in 10.0 mi WNW 8.1 mph - N/A   Partly Cloudy
6:53 PM 87.1 °F 93.6 °F 72.0 °F 61% 29.90 in 10.0 mi West 4.6 mph - N/A   Clear
7:53 PM 86.0 °F 93.8 °F 73.9 °F 67% 29.91 in 10.0 mi West 6.9 mph - N/A   Clear
8:53 PM 84.9 °F 91.4 °F 73.0 °F 67% 29.92 in 10.0 mi West 5.8 mph - N/A   Clear
9:53 PM 84.9 °F 92.1 °F 73.9 °F 69% 29.96 in 10.0 mi Calm Calm - N/A   Clear
10:53 PM 84.0 °F 91.2 °F 73.9 °F 72% 29.96 in 10.0 mi Calm Calm - N/A   Clear
11:53 PM 84.0 °F 91.2 °F 73.9 °F 72% 29.96 in 10.0 mi Calm Calm - N/A   Clear